EN

Hourly Weather Aachen

Today, 30 November, Monday

Time Temperature Precipitation Wind Pressure Humidity
00:00 -1°C° 0 mm 1 mps 754 mmHg 81%
01:00 -1°C° 0 mm 1 mps 753 mmHg 80%
02:00 -1°C° 0 mm 1 mps 753 mmHg 80%
03:00 -1°C° 0 mm 1 mps 753 mmHg 79%
04:00 -1°C° 0 mm 1 mps 753 mmHg 78%
05:00 -1°C° 0 mm 1 mps 753 mmHg 77%
06:00 -1°C° 0 mm 1 mps 753 mmHg 76%
07:00 -2°C° 0 mm 2 mps 753 mmHg 71%
08:00 -1°C° 0 mm 2 mps 753 mmHg 66%
09:00 +1°C° 0 mm 2 mps 753 mmHg 61%
10:00 +2°C° 0 mm 2 mps 753 mmHg 58%
11:00 +2°C° 0 mm 3 mps 752 mmHg 56%
12:00 +3°C° 0 mm 3 mps 752 mmHg 53%
13:00 +3°C° 0 mm 3 mps 751 mmHg 57%
14:00 +3°C° 0 mm 4 mps 751 mmHg 62%
15:00 +3°C° 0 mm 4 mps 750 mmHg 66%
16:00 +3°C° 0.1 mm 4 mps 750 mmHg 72%
17:00 +2°C° 0.1 mm 5 mps 749 mmHg 77%
18:00 +2°C° 0.1 mm 5 mps 749 mmHg 83%
19:00 +3°C° 0.9 mm 5 mps 748 mmHg 87%
20:00 +3°C° 0.9 mm 6 mps 747 mmHg 90%
21:00 +3°C° 0.9 mm 6 mps 747 mmHg 94%
22:00 +3°C° 0.7 mm 6 mps 746 mmHg 94%
23:00 +4°C° 0.7 mm 6 mps 746 mmHg 95%

Tomorrow, 1 December, Tuesday

Time Temperature Precipitation Wind Pressure Humidity
00:00 +4°C° 0.7 mm 6 mps 745 mmHg 96%
01:00 +4°C° 0.9 mm 6 mps 745 mmHg 95%
02:00 +4°C° 0.9 mm 6 mps 744 mmHg 94%
03:00 +3°C° 0.9 mm 6 mps 744 mmHg 93%
04:00 +3°C° 0.5 mm 5 mps 744 mmHg 93%
05:00 +4°C° 0.5 mm 4 mps 744 mmHg 93%
06:00 +3°C° 0.5 mm 3 mps 744 mmHg 93%
07:00 +3°C° 0.3 mm 3 mps 745 mmHg 93%
08:00 +3°C° 0.3 mm 3 mps 745 mmHg 94%
09:00 +3°C° 0.3 mm 3 mps 745 mmHg 95%
10:00 +4°C° 1.1 mm 3 mps 745 mmHg 94%
11:00 +4°C° 1.1 mm 3 mps 745 mmHg 94%
12:00 +5°C° 1.1 mm 4 mps 745 mmHg 93%
13:00 +5°C° 0.2 mm 3 mps 745 mmHg 93%
14:00 +6°C° 0.2 mm 2 mps 745 mmHg 93%
15:00 +6°C° 0.2 mm 2 mps 745 mmHg 93%
16:00 +6°C° 0 mm 1 mps 746 mmHg 93%
17:00 +6°C° 0 mm 1 mps 746 mmHg 94%
18:00 +5°C° 0 mm 0 mps 746 mmHg 94%
19:00 +5°C° 0 mm 1 mps 746 mmHg 94%
20:00 +5°C° 0 mm 1 mps 747 mmHg 94%
21:00 +5°C° 0 mm 1 mps 747 mmHg 94%
22:00 +5°C° 0 mm 1 mps 747 mmHg 93%
23:00 +4°C° 0 mm 1 mps 747 mmHg 93%

Day after tomorrow, 2 December, Wednesday

Time Temperature Precipitation Wind Pressure Humidity
00:00 +4°C° 0 mm 1 mps 748 mmHg 92%
01:00 +3°C° 0 mm 1 mps 747 mmHg 92%
02:00 +3°C° 0 mm 1 mps 747 mmHg 92%
03:00 +3°C° 0 mm 1 mps 747 mmHg 92%
04:00 +2°C° 0 mm 1 mps 748 mmHg 92%
05:00 +2°C° 0 mm 1 mps 748 mmHg 91%
06:00 +2°C° 0 mm 1 mps 748 mmHg 91%
07:00 +3°C° 0 mm 1 mps 748 mmHg 89%
08:00 +3°C° 0 mm 1 mps 748 mmHg 87%
09:00 +3°C° 0 mm 0 mps 748 mmHg 86%
10:00 +4°C° 0 mm 0 mps 747 mmHg 82%
11:00 +5°C° 0 mm 0 mps 747 mmHg 78%
12:00 +6°C° 0 mm 0 mps 747 mmHg 74%
13:00 +5°C° 0 mm 0 mps 746 mmHg 78%
14:00 +4°C° 0 mm 0 mps 746 mmHg 81%
15:00 +4°C° 0 mm 0 mps 745 mmHg 85%
16:00 +3°C° 0 mm 0 mps 745 mmHg 86%
17:00 +4°C° 0 mm 1 mps 745 mmHg 88%
18:00 +3°C° 0 mm 1 mps 745 mmHg 89%
19:00 +3°C° 0 mm 1 mps 744 mmHg 90%
20:00 +3°C° 0 mm 1 mps 744 mmHg 90%
21:00 +1°C° 0 mm 2 mps 744 mmHg 90%
22:00 +2°C° 0 mm 2 mps 744 mmHg 91%
23:00 +2°C° 0 mm 2 mps 743 mmHg 91%

3 December, Thursday

Time Temperature Precipitation Wind Pressure Humidity
00:00 +2°C° 0 mm 2 mps 743 mmHg 91%
01:00 +2°C° 0 mm 2 mps 742 mmHg 92%
02:00 +3°C° 0 mm 2 mps 742 mmHg 92%
03:00 +3°C° 0 mm 2 mps 741 mmHg 93%
04:00 +3°C° 0.1 mm 2 mps 741 mmHg 93%
05:00 +3°C° 0.1 mm 2 mps 740 mmHg 93%
06:00 +3°C° 0.1 mm 3 mps 740 mmHg 92%
07:00 +3°C° 0 mm 3 mps 740 mmHg 92%
08:00 +3°C° 0 mm 3 mps 739 mmHg 91%
09:00 +3°C° 0 mm 3 mps 739 mmHg 90%
10:00 +4°C° 0 mm 4 mps 738 mmHg 87%
11:00 +4°C° 0 mm 4 mps 738 mmHg 83%
12:00 +5°C° 0 mm 5 mps 737 mmHg 80%
13:00 +5°C° 0 mm 4 mps 736 mmHg 81%
14:00 +4°C° 0 mm 4 mps 735 mmHg 82%
15:00 +4°C° 0 mm 4 mps 735 mmHg 83%
16:00 +4°C° 0 mm 4 mps 734 mmHg 83%
17:00 +3°C° 0 mm 4 mps 733 mmHg 84%
18:00 +2°C° 0 mm 5 mps 733 mmHg 85%
19:00 +2°C° 0 mm 5 mps 732 mmHg 84%
20:00 +2°C° 0 mm 5 mps 731 mmHg 84%
21:00 +1°C° 0 mm 5 mps 731 mmHg 83%
22:00 +1°C° 0 mm 5 mps 730 mmHg 82%
23:00 +1°C° 0 mm 5 mps 729 mmHg 81%

4 December, Friday

Time Temperature Precipitation Wind Pressure Humidity
00:00 0°C° 0 mm 5 mps 728 mmHg 80%
01:00 0°C° 0 mm 5 mps 727 mmHg 80%
02:00 0°C° 0 mm 5 mps 726 mmHg 80%
03:00 0°C° 0 mm 5 mps 725 mmHg 80%
04:00 -1°C° 0 mm 6 mps 725 mmHg 80%
05:00 -1°C° 0 mm 6 mps 724 mmHg 81%
06:00 +1°C° 0 mm 6 mps 724 mmHg 82%
07:00 +1°C° 0.1 mm 6 mps 723 mmHg 83%
08:00 +2°C° 0.1 mm 5 mps 723 mmHg 84%
09:00 +2°C° 0.1 mm 5 mps 723 mmHg 85%
10:00 +3°C° 0 mm 5 mps 723 mmHg 84%
11:00 +3°C° 0 mm 6 mps 723 mmHg 83%
12:00 +3°C° 0 mm 6 mps 723 mmHg 82%
13:00 +3°C° 0 mm 6 mps 722 mmHg 80%
14:00 +3°C° 0 mm 5 mps 722 mmHg 78%
15:00 +3°C° 0 mm 5 mps 722 mmHg 76%
16:00 +2°C° 0 mm 5 mps 723 mmHg 78%
17:00 +2°C° 0 mm 5 mps 723 mmHg 81%
18:00 +1°C° 0 mm 5 mps 723 mmHg 83%
19:00 +1°C° 0 mm 5 mps 724 mmHg 83%
20:00 +1°C° 0 mm 5 mps 724 mmHg 83%
21:00 +1°C° 0 mm 4 mps 724 mmHg 83%
22:00 0°C° 0 mm 4 mps 724 mmHg 83%
23:00 0°C° 0 mm 4 mps 725 mmHg 84%

5 December, Saturday

Time Temperature Precipitation Wind Pressure Humidity
00:00 -1°C° 0 mm 4 mps 725 mmHg 84%
01:00 -1°C° 0 mm 4 mps 725 mmHg 84%
02:00 -1°C° 0 mm 4 mps 725 mmHg 84%
03:00 0°C° 0 mm 3 mps 725 mmHg 84%
04:00 -1°C° 0 mm 4 mps 725 mmHg 84%
05:00 -1°C° 0 mm 4 mps 725 mmHg 85%
06:00 -2°C° 0 mm 4 mps 725 mmHg 85%
07:00 -1°C° 0 mm 4 mps 726 mmHg 83%
08:00 0°C° 0 mm 4 mps 726 mmHg 80%
09:00 0°C° 0 mm 5 mps 726 mmHg 78%
10:00 +1°C° 0 mm 5 mps 726 mmHg 75%
11:00 +1°C° 0 mm 6 mps 726 mmHg 72%
12:00 +2°C° 0 mm 6 mps 726 mmHg 69%
13:00 +2°C° 0 mm 6 mps 726 mmHg 71%
14:00 +1°C° 0 mm 5 mps 726 mmHg 74%
15:00 +1°C° 0 mm 5 mps 726 mmHg 76%
16:00 +1°C° 0 mm 5 mps 725 mmHg 78%
17:00 +1°C° 0 mm 5 mps 725 mmHg 81%
18:00 +1°C° 0 mm 5 mps 725 mmHg 83%
19:00 +1°C° 0.1 mm 5 mps 725 mmHg 84%
20:00 +1°C° 0.1 mm 5 mps 725 mmHg 85%
21:00 +1°C° 0.1 mm 5 mps 725 mmHg 86%
22:00 +1°C° 0.2 mm 5 mps 725 mmHg 88%
23:00 +1°C° 0.2 mm 5 mps 725 mmHg 90%
Show more